Meteo Giornale » Osservazioni meteo Cina » Urum-Qi-Diwopu
ore: 13:30 - Osservazioni Meteo Urum-Qi-Diwopu
Lat. 43° 54' N Lon. 87° 28' E Alt. 654 metri s.l.m.
25 °C
Nuvoloso
Temp. 24 Ore
21 °C
33 °C
Nord
25.2 Km/h
Dew point 12 °C
Umidità 44 %
Visibilità 10 Km
Il sole sorge alle ore 05:33
Il sole tramonta alle ore 18:47
| Data e Ora | Cielo e Fenomeni | T °C | DP °C | Um. % | Pres. hPa | Vis. km | Vento km/h | |
|---|---|---|---|---|---|---|---|---|
| Oggi h: 13:30 | Nuvoloso | 25 | 12 | 44 | 1016 | 10 | N 25.2 | |
| Oggi h: 13:00 | Sereno | 25 | 12 | 44 | 1016 | 10 | N 21.6 | |
| Oggi h: 12:30 | Sereno | 24 | 12 | 47 | 1016 | 10 | N/NE 18 | |
| Oggi h: 12:00 | Sereno | 24 | 12 | 47 | 1016 | 10 | N 21.6 | |
| Oggi h: 11:30 | Sereno | 24 | 11 | 43 | 1017 | 10 | NE 18 | |
| Oggi h: 11:00 | Sereno | 23 | 12 | 49 | 1017 | 10 | N/NE 18 | |
| Oggi h: 10:30 | Sereno | 22 | 12 | 53 | 1017 | 10 | N/NE 25.2 | |
| Oggi h: 10:00 | Sereno | 22 | 12 | 53 | 1017 | 6 | N 14.4 | |
| Oggi h: 09:30 | polveroso | 22 | 13 | 56 | 1017 | 5 | N 10.8 | |
| Oggi h: 09:00 | Sereno | 21 | 13 | 60 | 1017 | 6 | N 14.4 | |
| Oggi h: 08:30 | Sereno | 22 | 12 | 53 | 1016 | 6 | N 7.2 | |
| Oggi h: 08:00 | Sereno | 21 | 12 | 56 | 1016 | 6 | N 7.2 | |
| Oggi h: 07:30 | Sereno | 21 | 12 | 56 | 1016 | 6 | NE 10.8 | |
| Oggi h: 07:00 | Sereno | 21 | 12 | 56 | 1015 | 8 | N/NE 10.8 | |
| Oggi h: 06:30 | Sereno | 21 | 11 | 52 | 1015 | 6 | N 14.4 | |
| Oggi h: 06:00 | Sereno | 22 | 11 | 49 | 1015 | 6 | N/NO 10.8 | |
| Oggi h: 05:30 | Sereno | 22 | 11 | 49 | 1014 | 7 | O/NO 10.8 | |
| Oggi h: 05:00 | Sereno | 22 | 11 | 49 | 1014 | 8 | O/NO 18 | |
| Oggi h: 04:30 | Sereno | 22 | 11 | 49 | 1014 | 8 | NO 10.8 | |
| Oggi h: 04:00 | Sereno | 23 | 11 | 46 | 1013 | 8 | NO 10.8 | |
| Oggi h: 03:30 | Sereno | 23 | 11 | 46 | 1013 | 8 | O 10.8 | |
| Oggi h: 03:00 | Sereno | 23 | 11 | 46 | 1013 | 8 | O 10.8 | |
| Oggi h: 02:30 | Sereno | 23 | 11 | 46 | 1012 | 7 | O/NO 18 | |
| Oggi h: 02:00 | Sereno | 24 | 11 | 43 | 1011 | 7 | O 32.4 | |
| Oggi h: 01:30 | Molto ventoso con sabbia | 24 | 10 | 41 | 1009 | 5 | O 39.6 | |
| Oggi h: 01:00 | Sereno | 25 | 9 | 36 | 1007 | 10 | O/NO 18 | |
| Oggi h: 00:30 | Sereno | 28 | 8 | 28 | 1004 | 10 | SO 10.8 | |
| Oggi h: 00:00 | Sereno | 28 | 8 | 28 | 1004 | 10 | S 14.4 | |
| Ieri h: 23:30 | Sereno | 28 | 8 | 28 | 1004 | 10 | S 10.8 | |
| Ieri h: 23:00 | Sereno | 28 | 9 | 30 | 1004 | 10 | S 14.4 | |
| Ieri h: 22:30 | Sereno | 29 | 9 | 28 | 1004 | 10 | S/SE 10.8 | |
| Ieri h: 22:00 | Sereno | 29 | 9 | 28 | 1004 | 10 | S/SE 10.8 | |
| Ieri h: 21:30 | Sereno | 29 | 10 | 30 | 1004 | 10 | N 7.2 | |
| Ieri h: 21:00 | Sereno | 30 | 10 | 28 | 1004 | 10 | N 7.2 | |
| Ieri h: 20:30 | Sereno | 31 | 10 | 27 | 1004 | 10 | S 10.8 | |
| Ieri h: 20:00 | Sereno | 31 | 10 | 27 | 1004 | 10 | N 7.2 | |
| Ieri h: 19:30 | Sereno | 32 | 9 | 24 | 1004 | 10 | N 7.2 | |
| Ieri h: 19:00 | Sereno | 32 | 8 | 22 | 1004 | 10 | N 7.2 | |
| Ieri h: 18:30 | Sereno | 32 | 9 | 24 | 1004 | 10 | N 7.2 | |
| Ieri h: 18:00 | Sereno | 33 | 9 | 22 | 1004 | 10 | N 7.2 | |
| Ieri h: 17:30 | Sereno | 33 | 10 | 24 | 1004 | 10 | N 7.2 | |
| Ieri h: 17:00 | Sereno | 33 | 9 | 22 | 1004 | 10 | N/NO 10.8 | |
| Ieri h: 16:30 | Sereno | 33 | 10 | 24 | 1005 | 10 | NO 10.8 | |
| Ieri h: 16:00 | Sereno | 33 | 10 | 24 | 1005 | 10 | N 10.8 | |
| Ieri h: 15:30 | Sereno | 33 | 10 | 24 | 1005 | 10 | N/NO 10.8 | |
| Ieri h: 15:00 | Sereno | 33 | 9 | 22 | 1006 | 10 | N/NO 10.8 | |



